Weather reports worldwide

Advertisment
Bolzano, Italy (16020): temperature & dewpoint: 13.07.2018 13:00:00 - 19.07.2018 13:00:00 (CEST)Bolzano, Italy (16020): wind speed: 13.07.2018 13:00:00 - 19.07.2018 13:00:00 (CEST)Bolzano, Italy (16020): wind direction: 13.07.2018 13:00:00 - 19.07.2018 13:00:00 (CEST)Bolzano, Italy (16020): reduced air pressure: 13.07.2018 13:00:00 - 19.07.2018 13:00:00 (CEST)Bolzano, Italy (16020): visibility: 13.07.2018 13:00:00 - 19.07.2018 13:00:00 (CEST)Bolzano, Italy (16020): precipitation: 13.07.2018 13:00:00 - 19.07.2018 13:00:00 (CEST)
Date & Time tt [°C] td [°C] ff [km/h] ff [kn] dd ppp [hPa] vv [km] rr [mm]
19.07.2018 13:00:00 31,0 10,0 5 3 - - 10 -
19.07.2018 12:00:00 29,0 10,0 4 2 - - 10 -
19.07.2018 11:00:00 27,2 10,1 4 2 - 1013,3 10 -
19.07.2018 10:00:00 25,0 11,0 4 2 - - 10 -
19.07.2018 09:00:00 22,0 13,0 5 3 - - 10 -
19.07.2018 08:00:00 17,7 11,8 2 1 - 1015,7 10 0,0
19.07.2018 07:00:00 16,0 12,0 4 2 - - 10 -
19.07.2018 06:00:00 - - - - - - - -
19.07.2018 05:00:00 17,3 12,2 2 1 NNW 1015,4 - -
19.07.2018 04:00:00 - - - - - - - -
19.07.2018 03:00:00 - - - - - - - -
19.07.2018 02:00:00 19,1 12,1 5 3 SSE 1014,7 - 0,0
19.07.2018 01:00:00 - - - - - - - -
19.07.2018 00:00:00 - - - - - - - -
18.07.2018 23:00:00 22,3 12,7 0 0 N 1012,8 10 -
18.07.2018 22:00:00 26,0 11,0 4 2 - - 10 -
18.07.2018 21:00:00 28,0 10,0 11 6 SSE - 10 -
18.07.2018 20:00:00 29,5 10,6 11 6 SSE 1010,0 10 0,0
18.07.2018 19:00:00 32,0 8,0 11 6 S - 10 -
18.07.2018 18:00:00 34,0 8,0 5 3 - - 10 -
18.07.2018 17:00:00 33,9 10,6 5 3 - 1009,8 10 -
18.07.2018 16:00:00 34,0 9,0 5 3 - - 10 -
18.07.2018 15:00:00 33,0 10,0 4 2 S - 10 -
18.07.2018 14:00:00 32,1 10,0 0 0 N 1012,1 10 0,0
18.07.2018 13:00:00 30,0 9,0 4 2 S - 10 -
18.07.2018 12:00:00 28,0 9,0 0 0 N - 10 -
18.07.2018 11:00:00 26,5 10,3 0 0 N 1015,0 10 -
18.07.2018 10:00:00 23,0 10,0 0 0 N - 10 -
18.07.2018 09:00:00 20,0 10,0 5 3 ESE - 10 -
18.07.2018 08:00:00 16,4 11,4 2 1 ESE 1017,2 30 0,0
18.07.2018 07:00:00 15,0 10,0 0 0 N - 10 -
18.07.2018 06:00:00 - - - - - - - -
18.07.2018 05:00:00 - - - - - - - -
18.07.2018 04:00:00 - - - - - - - -
18.07.2018 03:00:00 - - - - - - - -
18.07.2018 02:00:00 18,7 10,3 2 1 SSE 1015,9 - 0,0
18.07.2018 01:00:00 - - - - - - - -
18.07.2018 00:00:00 - - - - - - - -
17.07.2018 23:00:00 23,7 5,0 15 8 N 1014,2 10 -
17.07.2018 22:00:00 25,0 5,0 5 3 - - 10 -
17.07.2018 21:00:00 28,0 4,0 13 7 ENE - 10 -
17.07.2018 20:00:00 29,3 5,0 18 10 NE 1011,3 10 0,0
17.07.2018 19:00:00 30,0 4,0 18 10 NE - 10 -
17.07.2018 18:00:00 32,0 6,0 11 6 - - 10 -
17.07.2018 17:00:00 30,4 6,5 11 6 NNE 1010,1 10 -
17.07.2018 16:00:00 32,0 7,0 18 10 NW - 10 -
17.07.2018 15:00:00 30,0 9,0 8 4 - - 10 -
17.07.2018 14:00:00 29,7 15,1 2 1 - 1010,3 10 0,0
17.07.2018 13:00:00 27,0 13,0 2 1 - - 10 -
17.07.2018 12:00:00 26,0 13,0 5 3 - - 10 -
17.07.2018 11:00:00 25,5 14,8 4 2 - 1011,6 10 -
17.07.2018 10:00:00 23,0 14,0 5 3 - - 10 -
17.07.2018 09:00:00 19,0 15,0 2 1 - - 10 -
17.07.2018 08:00:00 18,0 15,3 2 1 - 1013,3 10 0,0
17.07.2018 07:00:00 15,0 14,0 2 1 - - 10 -
17.07.2018 06:00:00 - - - - - - - -
17.07.2018 05:00:00 - - - - - - - -
17.07.2018 04:00:00 - - - - - - - -
17.07.2018 03:00:00 - - - - - - - -
17.07.2018 02:00:00 17,8 15,8 2 1 WSW 1011,4 - 0,0
17.07.2018 01:00:00 - - - - - - - -
17.07.2018 00:00:00 - - - - - - - -
16.07.2018 23:00:00 20,2 16,9 2 1 - 1010,1 10 -
16.07.2018 22:00:00 23,0 16,0 4 2 - - 10 -
16.07.2018 21:00:00 24,0 16,0 11 6 SSE - 10 -
16.07.2018 20:00:00 24,8 15,5 15 8 SSE 1008,9 10 0,0
16.07.2018 19:00:00 26,0 16,0 13 7 S - 10 -
16.07.2018 18:00:00 - - - - - - - -
16.07.2018 17:00:00 - - - - - - - -
16.07.2018 16:00:00 30,0 15,0 11 6 S - 10 -
16.07.2018 15:00:00 30,0 15,0 11 6 S - 10 -
16.07.2018 14:00:00 28,8 15,0 9 5 SSE 1008,7 10 0,0
16.07.2018 13:00:00 27,0 15,0 8 4 S - 10 -
16.07.2018 12:00:00 26,0 16,0 8 4 SSE - 10 -
16.07.2018 11:00:00 24,6 15,9 5 3 - 1012,4 10 -
16.07.2018 10:00:00 22,0 15,0 5 3 - - 10 -
16.07.2018 09:00:00 20,0 16,0 4 2 - - 10 -
16.07.2018 08:00:00 17,3 16,2 2 1 - 1015,5 10 -
16.07.2018 07:00:00 17,0 16,0 0 0 N - 10 -
16.07.2018 06:00:00 - - - - - - - -
16.07.2018 05:00:00 16,7 16,1 2 1 SSW 1015,9 - -
16.07.2018 04:00:00 - - - - - - - -
16.07.2018 03:00:00 - - - - - - - -
16.07.2018 02:00:00 18,0 16,6 2 1 W 1016,9 - -
16.07.2018 01:00:00 - - - - - - - -
16.07.2018 00:00:00 - - - - - - - -
15.07.2018 23:00:00 19,0 17,0 8 4 N 1016,5 10 -
15.07.2018 22:00:00 21,0 16,0 13 7 SSE - 10 -
15.07.2018 21:00:00 23,0 16,0 37 20 S - 10 -
15.07.2018 20:00:00 24,6 16,8 8 4 ESE 1010,4 10 0,0
15.07.2018 19:00:00 28,0 13,0 8 4 NNE - 10 -
15.07.2018 18:00:00 28,0 11,0 8 4 S - 10 -
15.07.2018 17:00:00 29,9 12,5 9 5 S 1011,0 10 -
15.07.2018 16:00:00 27,0 15,0 8 4 SSW - 10 -
15.07.2018 15:00:00 28,0 14,0 4 2 - - 10 -
15.07.2018 14:00:00 27,1 14,4 2 1 - 1013,5 10 0,0
15.07.2018 13:00:00 25,0 16,0 4 2 - - 10 -
15.07.2018 12:00:00 24,0 15,0 0 0 N - 10 -
15.07.2018 11:00:00 22,7 15,8 2 1 - 1016,6 10 -
15.07.2018 10:00:00 21,0 17,0 5 3 ESE - 10 -
15.07.2018 09:00:00 20,0 16,0 4 2 - - 10 -
15.07.2018 08:00:00 19,5 16,7 0 0 N 1017,2 10 -
15.07.2018 07:00:00 19,0 17,0 5 3 - - 10 -
15.07.2018 06:00:00 - - - - - - - -
15.07.2018 05:00:00 18,8 16,9 2 1 NNE 1017,4 - -
15.07.2018 04:00:00 - - - - - - - -
15.07.2018 03:00:00 - - - - - - - -
15.07.2018 02:00:00 19,4 16,5 4 2 NE 1017,6 - -
15.07.2018 01:00:00 - - - - - - - -
15.07.2018 00:00:00 - - - - - - - -
14.07.2018 23:00:00 24,0 17,9 5 3 - 1015,1 10 -
14.07.2018 22:00:00 25,0 17,0 11 6 ESE - 10 -
14.07.2018 21:00:00 25,0 17,0 8 4 SSE - 10 -
14.07.2018 20:00:00 26,1 17,6 16 9 S 1013,3 10 0,0
14.07.2018 19:00:00 30,0 18,0 11 6 SSE - 10 -
14.07.2018 18:00:00 29,0 18,0 9 5 SE - 10 -
14.07.2018 17:00:00 30,5 15,7 9 5 S 1012,2 10 -
14.07.2018 16:00:00 30,0 18,0 5 3 - - 10 -
14.07.2018 15:00:00 30,0 15,0 8 4 S - 10 -
14.07.2018 14:00:00 30,6 15,7 9 5 SSE 1014,4 10 0,0
14.07.2018 13:00:00 29,0 15,0 8 4 S - 10 -
14.07.2018 12:00:00 27,0 15,0 5 3 - - 10 -
14.07.2018 11:00:00 26,0 14,9 4 2 - 1017,6 10 -
14.07.2018 10:00:00 23,0 18,0 5 3 - - 10 -
14.07.2018 09:00:00 21,0 18,0 0 0 N - 10 -
14.07.2018 08:00:00 18,8 18,1 0 0 N 1020,0 10 -
14.07.2018 07:00:00 18,0 18,0 0 0 N - 10 -
14.07.2018 06:00:00 - - - - - - - -
14.07.2018 05:00:00 18,6 17,8 2 1 ESE 1019,7 - -
14.07.2018 04:00:00 - - - - - - - -
14.07.2018 03:00:00 - - - - - - - -
14.07.2018 02:00:00 20,9 18,1 4 2 SW 1017,8 - 0,0
14.07.2018 01:00:00 - - - - - - - -
14.07.2018 00:00:00 - - - - - - - -
13.07.2018 23:00:00 23,9 17,4 4 2 NW 1016,8 15 -
13.07.2018 22:00:00 26,0 17,0 9 5 SSE - 10 -
13.07.2018 21:00:00 26,0 16,0 9 5 SSE - 10 -
13.07.2018 20:00:00 27,5 15,7 15 8 SSE 1014,2 10 0,0
13.07.2018 19:00:00 29,0 16,0 16 9 SSE - 10 -
13.07.2018 18:00:00 30,0 15,0 18 10 SSE - 10 -
13.07.2018 17:00:00 31,0 13,9 16 9 S 1013,0 10 -
13.07.2018 16:00:00 31,0 13,0 15 8 S - 10 -
13.07.2018 15:00:00 31,0 12,0 11 6 SSE - 10 -
13.07.2018 14:00:00 30,3 13,2 9 5 SSE 1014,5 10 0,0
13.07.2018 13:00:00 28,0 14,0 5 3 - - 10 -

tt = temperature
td = dewpoint
ff = wind speed
dd = wind direction
ppp = reduced air pressure
vv = visibility
rr = precipitation

Next stations